Yakima, WA

1:59 PM PST on January 21, 2017 (GMT -0800)
Vagabond Aaf / Yakim

Weather History for K1YT - March, 2014

Change the Weather History Date:

Monday, March 3, 2014

  Actual Average (KYKM) Record (KYKM)
Temperature  
Mean Temperature 28 °F -  
Max Temperature 39 °F 49 °F 66 °F (1994)
Min Temperature 17 °F 28 °F 6 °F (1960)
Degree Days  
Heating Degree Days 37    
Moisture  
Dew Point 25 °F    
Average Humidity 86    
Maximum Humidity 99    
Minimum Humidity 75    
Precipitation  
Precipitation 0.02 in - - ()
Sea Level Pressure  
Sea Level Pressure 29.81 in    
Wind  
Wind Speed 3 mph (NW)    
Max Wind Speed 6 mph    
Max Gust Speed -    
Visibility 11 miles    
Events Rain , Snow    
Averages and records for this station are not official NWS values.
T = Trace of Precipitation, MM = Missing Value Source: NWS Daily Summary

Daily Weather History Graph

Daily Weather History Graph

Search for Another Location

Airport or City:

Trip Planner

Search our weather history database for the weather conditions in past years. The results will help you decide how hot, cold, wet, or windy it might be!

Date:

Astronomy

Mar. 03, 2014 Rise Set
Actual Time 6:37 AM PST 5:50 PM PST
Civil Twilight 6:07 AM PST 6:21 PM PST
Nautical Twilight 5:32 AM PST 6:56 PM PST
Astronomical Twilight 4:57 AM PST 7:31 PM PST
Moon 7:37 AM PST (3/3) 9:13 PM PST (3/3)
Length of Visible Light 12h 13m
Length of Day
11h 13m
Waxing Crescent, 8% of the Moon is Illuminated
Mar 3
Waxing Crescent
Mar 8
First Quarter
Mar 16
Full
Mar 23
Last Quarter
Mar 30
New

Hourly Weather History & Observations

Time (PST) Temp. Windchill Dew Point Humidity Pressure Visibility Wind Dir Wind Speed Gust Speed Precip Events Conditions
12:56 AM 23.7 °F 16.6 °F 21.0 °F 89% 29.84 in 12.0 mi SSE 5.8 mph - N/A   Overcast
1:56 AM 23.7 °F 19.3 °F 20.8 °F 89% 29.85 in 11.0 mi NNW 3.5 mph - N/A   Overcast
2:21 AM 21.2 °F - 17.6 °F 86% 29.84 in 12.0 mi NW 2.3 mph - N/A   Mostly Cloudy
2:56 AM 19.4 °F 14.3 °F 16.3 °F 88% 29.84 in 12.0 mi NE 3.5 mph - N/A   Mostly Cloudy
3:56 AM 19.4 °F - 16.5 °F 89% 29.85 in 12.0 mi NNW 2.3 mph - N/A   Mostly Cloudy
4:26 AM 17.6 °F - 15.8 °F 93% 29.85 in 12.0 mi Variable 1.2 mph - N/A   Scattered Clouds
4:56 AM 17.8 °F - 16.3 °F 94% 29.84 in 12.0 mi Calm Calm - N/A   Partly Cloudy
5:56 AM 18.0 °F - 15.4 °F 90% 29.85 in 12.0 mi Variable 1.2 mph - N/A   Scattered Clouds
6:56 AM 22.6 °F - 19.6 °F 88% 29.83 in 12.0 mi Calm Calm - N/A   Mostly Cloudy
6:58 AM 23.0 °F - 19.4 °F 86% 29.83 in 12.0 mi South 1.2 mph - N/A Snow Light Snow
7:21 AM 24.8 °F - 21.2 °F 86% 29.82 in 12.0 mi Variable 1.2 mph - N/A Rain Light Freezing Rain
7:56 AM 22.6 °F 16.5 °F 20.5 °F 91% 29.81 in 9.0 mi WSW 4.6 mph - 0.01 in Rain Light Freezing Rain
7:58 AM 23.0 °F 18.4 °F 21.2 °F 93% 29.81 in 9.0 mi West 3.5 mph - N/A Snow Light Snow
8:09 AM 23.0 °F - 21.2 °F 93% 29.80 in 10.0 mi WSW 2.3 mph - N/A   Mostly Cloudy
8:56 AM 25.5 °F - 21.6 °F 85% 29.81 in 12.0 mi Calm Calm - N/A   Mostly Cloudy
9:36 AM 26.6 °F - 23.0 °F 86% 29.80 in 12.0 mi North 1.2 mph - N/A Rain Light Freezing Rain
9:56 AM 27.1 °F - 22.5 °F 83% 29.81 in 12.0 mi Variable 2.3 mph - N/A Rain Light Freezing Rain
10:19 AM 26.6 °F 22.6 °F 23.0 °F 86% 29.81 in 12.0 mi NNW 3.5 mph - N/A Rain Light Freezing Rain
10:39 AM 26.6 °F - 23.0 °F 86% 29.79 in 12.0 mi Variable 1.2 mph - N/A Rain Light Freezing Rain
10:56 AM 28.6 °F 24.8 °F 23.7 °F 82% 29.79 in 12.0 mi NNW 3.5 mph - 0.01 in Rain Light Freezing Rain
11:00 AM 28.4 °F - 23.0 °F 80% 29.79 in 12.0 mi NNW 2.3 mph - N/A   Mostly Cloudy
11:05 AM 28.4 °F - 24.8 °F 86% 29.78 in 12.0 mi Variable 1.2 mph - N/A   Mostly Cloudy
11:10 AM 28.4 °F - 23.0 °F 80% 29.78 in 12.0 mi Variable 1.2 mph - N/A   Mostly Cloudy
11:40 AM 30.2 °F 25.4 °F 24.8 °F 80% 29.80 in 12.0 mi NNW 4.6 mph - N/A   Mostly Cloudy
11:56 AM 30.9 °F 27.5 °F 25.5 °F 80% 29.80 in 12.0 mi Variable 3.5 mph - N/A   Mostly Cloudy
12:26 PM 32.0 °F - 26.6 °F 80% 29.79 in 12.0 mi Variable 2.3 mph - N/A   Mostly Cloudy
12:56 PM 32.4 °F - 27.3 °F 82% 29.78 in 12.0 mi Variable 2.3 mph - N/A   Scattered Clouds
1:31 PM 33.8 °F 28.6 °F 28.4 °F 81% 29.77 in 12.0 mi West 5.8 mph - N/A   Mostly Cloudy
1:51 PM 35.6 °F 31.7 °F 30.2 °F 81% 29.76 in 12.0 mi West 4.6 mph - N/A   Mostly Cloudy
1:56 PM 35.4 °F 30.5 °F 30.4 °F 82% 29.77 in 12.0 mi West 5.8 mph - N/A   Mostly Cloudy
2:01 PM 35.6 °F 30.7 °F 30.2 °F 81% 29.77 in 12.0 mi WNW 5.8 mph - N/A   Mostly Cloudy
2:50 PM 37.4 °F 33.8 °F 30.2 °F 75% 29.78 in 12.0 mi Variable 4.6 mph - N/A Rain Light Rain
2:56 PM 36.9 °F 33.1 °F 31.6 °F 81% 29.79 in 12.0 mi Variable 4.6 mph - N/A   Light Drizzle
3:16 PM 37.4 °F 34.9 °F 32.0 °F 81% 29.77 in 12.0 mi Variable 3.5 mph - N/A Rain Light Rain Showers
3:22 PM 37.4 °F 32.8 °F 32.0 °F 81% 29.77 in 12.0 mi WNW 5.8 mph - N/A   Scattered Clouds
3:42 PM 37.4 °F 34.9 °F 32.0 °F 81% 29.78 in 12.0 mi NNW 3.5 mph - N/A   Mostly Cloudy
3:56 PM 38.5 °F 35.0 °F 32.0 °F 78% 29.79 in 11.0 mi NNW 4.6 mph - N/A   Mostly Cloudy
4:11 PM 39.2 °F 35.9 °F 32.0 °F 75% 29.78 in 12.0 mi NNE 4.6 mph - N/A   Scattered Clouds
4:56 PM 39.4 °F - 32.9 °F 78% 29.79 in 12.0 mi Variable 2.3 mph - N/A   Partly Cloudy
5:56 PM 35.8 °F - 31.3 °F 84% 29.81 in 11.0 mi WNW 2.3 mph - N/A   Scattered Clouds
6:56 PM 32.7 °F - 30.2 °F 90% 29.84 in 10.0 mi Variable 2.3 mph - N/A   Scattered Clouds
7:56 PM 32.7 °F 29.6 °F 30.9 °F 93% 29.85 in 11.0 mi West 3.5 mph - N/A   Clear
8:56 PM 31.1 °F - 28.9 °F 92% 29.86 in 10.0 mi Variable 1.2 mph - N/A   Clear
9:56 PM 29.7 °F 26.1 °F 27.9 °F 93% 29.88 in 7.0 mi South 3.5 mph - N/A   Clear
10:56 PM 28.8 °F - 28.6 °F 99% 29.88 in 5.0 mi NE 1.2 mph - N/A   Clear
11:56 PM 29.3 °F - 28.6 °F 97% 29.89 in 6.0 mi ESE 2.3 mph - N/A   Clear